This is the latest recevied weather packets stored in our database for station/object K4DNM. If no packets are shown the sender has not sent any weather packets the latest 10 day(s).
| Time | Temp. | Humidity | Pressure | Rain* | Wind** | Luminosity | Snow |
|---|---|---|---|---|---|---|---|
| 1777915812 | 25° C | 40% | 1014.3 hPa | 0 mm | - | 966 W/m² | - |
| 1777915512 | 25° C | 40% | 1014.5 hPa | 0 mm | - | 974 W/m² | - |
| 1777915213 | 24.44° C | 40% | 1014.4 hPa | 0 mm | - | 979 W/m² | - |
| 1777914913 | 24.44° C | 40% | 1014.5 hPa | 0 mm | - | 980 W/m² | - |
| 1777914674 | 24.44° C | 42% | 1014.6 hPa | 0 mm | - | 980 W/m² | - |
| 1777914313 | 24.44° C | 40% | 1014.6 hPa | 0 mm | - | 977 W/m² | - |
| 1777914010 | 24.44° C | 44% | 1014.7 hPa | 0 mm | - | 979 W/m² | - |
| 1777913769 | 24.44° C | 42% | 1014.8 hPa | 0 mm | - | 979 W/m² | - |
| 1777913470 | 24.44° C | 41% | 1014.8 hPa | 0 mm | - | 979 W/m² | - |
| 1777913110 | 24.44° C | 43% | 1014.8 hPa | 0 mm | - | 976 W/m² | - |
| 1777912811 | 24.44° C | 43% | 1014.9 hPa | 0 mm | - | 975 W/m² | - |
| 1777912511 | 24.44° C | 43% | 1014.9 hPa | 0 mm | - | 973 W/m² | - |
| 1777912211 | 24.44° C | 44% | 1015 hPa | 0 mm | - | 959 W/m² | - |
| 1777911911 | 24.44° C | 42% | 1015 hPa | 0 mm | - | 956 W/m² | - |
| 1777911612 | 24.44° C | 42% | 1015.1 hPa | 0 mm | - | 955 W/m² | - |
| 1777911312 | 23.89° C | 43% | 1015.1 hPa | 0 mm | - | 949 W/m² | - |
| 1777911072 | 23.33° C | 44% | 1015.2 hPa | 0 mm | - | 948 W/m² | - |
| 1777910708 | 23.33° C | 42% | 1015.3 hPa | 0 mm | - | 939 W/m² | - |
| 1777910408 | 23.33° C | 42% | 1015.3 hPa | 0 mm | - | 937 W/m² | - |
| 1777910165 | 23.33° C | 44% | 1015.3 hPa | 0 mm | - | 929 W/m² | - |
| 1777909809 | 22.78° C | 44% | 1015.3 hPa | 0 mm | - | 918 W/m² | - |
| 1777909505 | 22.78° C | 44% | 1015.3 hPa | 0 mm | - | 911 W/m² | - |
| 1777909203 | 22.78° C | 44% | 1015.4 hPa | 0 mm | - | 899 W/m² | - |
| 1777908903 | 22.22° C | 47% | 1015.4 hPa | 0 mm | - | 888 W/m² | - |
| 1777908603 | 22.22° C | 46% | 1015.6 hPa | 0 mm | - | 880 W/m² | - |
* Rain latest hour (hover to see other rain measurements)
** Current wind speed in m/s (hover to see current wind gust speed)